Time,TemperatureF,DewpointF,PressureIn,WindDirection,WindDirectionDegrees,WindSpeedMPH,WindSpeedGustMPH,Humidity,HourlyPrecipIn,Conditions,Clouds,dailyrainin,SoftwareType,DateUTC
2014-01-15 00:02:00,-5.0,-11.0,-100.00,WSW,245,2.0,5.0,76,0.00,,,0.00,,2014-01-15 09:02:00,
2014-01-15 00:11:00,-5.0,-11.0,-100.00,WSW,245,2.0,5.0,76,0.00,,,0.00,,2014-01-15 09:11:00,
2014-01-15 00:21:00,-4.0,-10.0,-100.00,NW,320,1.0,4.0,76,0.00,,,0.00,,2014-01-15 09:21:00,
2014-01-15 00:32:00,-4.0,-10.0,-100.00,NW,320,1.0,4.0,76,0.00,,,0.00,,2014-01-15 09:32:00,
2014-01-15 00:43:00,-4.0,-10.0,-100.00,NW,320,1.0,4.0,76,0.00,,,0.00,,2014-01-15 09:43:00,
2014-01-15 00:53:00,-7.0,-12.0,-100.00,SE,130,2.0,4.0,76,0.00,,,0.00,,2014-01-15 09:53:00,
2014-01-15 01:02:00,-7.0,-12.0,-100.00,SE,130,2.0,4.0,76,0.00,,,0.00,,2014-01-15 10:02:00,
2014-01-15 01:12:00,-7.0,-12.0,-100.00,SE,130,2.0,4.0,76,0.00,,,0.00,,2014-01-15 10:12:00,
2014-01-15 01:22:00,-7.0,-13.0,-100.00,SE,135,4.0,6.0,75,0.00,,,0.00,,2014-01-15 10:22:00,
2014-01-15 01:33:00,-7.0,-13.0,-100.00,SE,135,4.0,6.0,75,0.00,,,0.00,,2014-01-15 10:33:00,
2014-01-15 01:42:00,-7.0,-13.0,-100.00,SE,135,4.0,6.0,75,0.00,,,0.00,,2014-01-15 10:42:00,
2014-01-15 01:52:00,-8.0,-14.0,-100.00,SE,130,4.0,7.0,75,0.00,,,0.00,,2014-01-15 10:52:00,
2014-01-15 02:02:00,-8.0,-14.0,-100.00,SE,130,4.0,7.0,75,0.00,,,0.00,,2014-01-15 11:02:00,
2014-01-15 02:12:00,-8.0,-14.0,-100.00,SE,130,4.0,7.0,75,0.00,,,0.00,,2014-01-15 11:12:00,
2014-01-15 02:22:00,-9.0,-15.0,-100.00,ESE,115,6.0,9.0,75,0.00,,,0.00,,2014-01-15 11:22:00,
2014-01-15 02:32:00,-9.0,-15.0,-100.00,ESE,115,6.0,9.0,75,0.00,,,0.00,,2014-01-15 11:32:00,
2014-01-15 02:42:00,-9.0,-15.0,-100.00,ESE,115,6.0,9.0,75,0.00,,,0.00,,2014-01-15 11:42:00,
2014-01-15 02:52:00,-9.0,-15.0,-100.00,SE,130,5.0,11.0,75,0.00,,,0.00,,2014-01-15 11:52:00,
2014-01-15 03:02:00,-9.0,-15.0,-100.00,SE,130,5.0,11.0,75,0.00,,,0.00,,2014-01-15 12:02:00,
2014-01-15 03:11:00,-9.0,-15.0,-100.00,SE,130,5.0,11.0,75,0.00,,,0.00,,2014-01-15 12:11:00,
2014-01-15 03:22:00,-9.0,-15.0,-100.00,SE,125,5.0,11.0,75,0.00,,,0.00,,2014-01-15 12:22:00,
2014-01-15 03:32:00,-9.0,-15.0,-100.00,SE,125,5.0,11.0,75,0.00,,,0.00,,2014-01-15 12:32:00,
2014-01-15 03:42:00,-9.0,-15.0,-100.00,SE,125,5.0,11.0,75,0.00,,,0.00,,2014-01-15 12:42:00,
2014-01-15 03:52:00,-8.0,-14.0,-100.00,SE,135,7.0,10.0,75,0.00,,,0.00,,2014-01-15 12:52:00,
2014-01-15 04:02:00,-8.0,-14.0,-100.00,SE,135,7.0,10.0,75,0.00,,,0.00,,2014-01-15 13:02:00,
2014-01-15 04:11:00,-8.0,-14.0,-100.00,SE,135,7.0,10.0,75,0.00,,,0.00,,2014-01-15 13:11:00,
2014-01-15 04:21:00,-7.0,-13.0,-100.00,ESE,120,6.0,12.0,75,0.00,,,0.00,,2014-01-15 13:21:00,
2014-01-15 04:32:00,-7.0,-13.0,-100.00,ESE,120,6.0,12.0,75,0.00,,,0.00,,2014-01-15 13:32:00,
2014-01-15 04:42:00,-7.0,-13.0,-100.00,ESE,120,6.0,12.0,75,0.00,,,0.00,,2014-01-15 13:42:00,
2014-01-15 04:52:00,-6.0,-12.0,-100.00,ESE,120,6.0,13.0,76,0.00,,,0.00,,2014-01-15 13:52:00,
2014-01-15 05:02:00,-6.0,-12.0,-100.00,ESE,120,6.0,13.0,76,0.00,,,0.00,,2014-01-15 14:02:00,
2014-01-15 05:11:00,-6.0,-12.0,-100.00,ESE,120,6.0,13.0,76,0.00,,,0.00,,2014-01-15 14:11:00,
2014-01-15 05:21:00,-5.0,-11.0,-100.00,SE,135,4.0,10.0,76,0.00,,,0.00,,2014-01-15 14:21:00,
2014-01-15 05:32:00,-5.0,-11.0,-100.00,SE,135,4.0,10.0,76,0.00,,,0.00,,2014-01-15 14:32:00,
2014-01-15 05:42:00,-5.0,-11.0,-100.00,SE,135,4.0,10.0,76,0.00,,,0.00,,2014-01-15 14:42:00,
2014-01-15 05:52:00,-5.0,-10.0,-100.00,SE,125,4.0,11.0,76,0.00,,,0.00,,2014-01-15 14:52:00,
2014-01-15 06:02:00,-5.0,-10.0,-100.00,SE,125,4.0,11.0,76,0.00,,,0.00,,2014-01-15 15:02:00,
2014-01-15 06:11:00,-5.0,-10.0,-100.00,SE,125,4.0,11.0,76,0.00,,,0.00,,2014-01-15 15:11:00,
2014-01-15 06:21:00,-4.0,-10.0,-100.00,ESE,105,5.0,10.0,76,0.00,,,0.00,,2014-01-15 15:21:00,
2014-01-15 06:33:00,-4.0,-10.0,-100.00,ESE,105,5.0,10.0,76,0.00,,,0.00,,2014-01-15 15:33:00,
2014-01-15 06:43:00,-4.0,-10.0,-100.00,ESE,105,5.0,10.0,76,0.00,,,0.00,,2014-01-15 15:43:00,
2014-01-15 06:53:00,-5.0,-10.0,-100.00,ESE,120,7.0,12.0,76,0.00,,,0.00,,2014-01-15 15:53:00,
2014-01-15 07:03:00,-5.0,-10.0,-100.00,ESE,120,7.0,12.0,76,0.00,,,0.00,,2014-01-15 16:03:00,
2014-01-15 07:12:00,-5.0,-10.0,-100.00,ESE,120,7.0,12.0,76,0.00,,,0.00,,2014-01-15 16:12:00,
2014-01-15 07:23:00,-4.0,-10.0,-100.00,SE,145,5.0,12.0,76,0.00,,,0.00,,2014-01-15 16:23:00,
2014-01-15 07:33:00,-4.0,-10.0,-100.00,SE,145,5.0,12.0,76,0.00,,,0.00,,2014-01-15 16:33:00,
2014-01-15 07:43:00,-4.0,-10.0,-100.00,SE,145,5.0,12.0,76,0.00,,,0.00,,2014-01-15 16:43:00,
2014-01-15 07:53:00,-3.0,-8.0,-100.00,SE,130,4.0,8.0,76,0.00,,,0.00,,2014-01-15 16:53:00,
2014-01-15 08:02:00,-3.0,-8.0,-100.00,SE,130,4.0,8.0,76,0.00,,,0.00,,2014-01-15 17:02:00,
2014-01-15 08:12:00,-3.0,-8.0,-100.00,SE,130,4.0,8.0,76,0.00,,,0.00,,2014-01-15 17:12:00,
2014-01-15 08:22:00,0.0,-6.0,-100.00,SE,130,4.0,7.0,77,0.00,,,0.00,,2014-01-15 17:22:00,
2014-01-15 08:33:00,0.0,-6.0,-100.00,SE,130,4.0,7.0,77,0.00,,,0.00,,2014-01-15 17:33:00,
2014-01-15 08:42:00,0.0,-6.0,-100.00,SE,130,4.0,7.0,77,0.00,,,0.00,,2014-01-15 17:42:00,
2014-01-15 08:52:00,1.0,-5.0,-100.00,SE,125,5.0,9.0,77,0.00,,,0.00,,2014-01-15 17:52:00,
2014-01-15 09:02:00,1.0,-5.0,-100.00,SE,125,5.0,9.0,77,0.00,,,0.00,,2014-01-15 18:02:00,
2014-01-15 09:12:00,1.0,-5.0,-100.00,SE,125,5.0,9.0,77,0.00,,,0.00,,2014-01-15 18:12:00,
2014-01-15 09:21:00,0.0,-5.0,-100.00,ESE,110,4.0,9.0,78,0.00,,,0.00,,2014-01-15 18:21:00,
2014-01-15 09:32:00,0.0,-5.0,-100.00,ESE,110,4.0,9.0,78,0.00,,,0.00,,2014-01-15 18:32:00,
2014-01-15 09:43:00,0.0,-5.0,-100.00,ESE,110,4.0,9.0,78,0.00,,,0.00,,2014-01-15 18:43:00,
2014-01-15 09:52:00,0.0,-5.0,-100.00,ESE,115,4.0,9.0,77,0.00,,,0.00,,2014-01-15 18:52:00,
2014-01-15 10:02:00,0.0,-5.0,-100.00,ESE,115,4.0,9.0,77,0.00,,,0.00,,2014-01-15 19:02:00,
2014-01-15 10:11:00,0.0,-5.0,-100.00,ESE,115,4.0,9.0,77,0.00,,,0.00,,2014-01-15 19:11:00,
2014-01-15 10:21:00,0.0,-5.0,-100.00,ESE,110,6.0,11.0,78,0.00,,,0.00,,2014-01-15 19:21:00,
2014-01-15 10:32:00,0.0,-5.0,-100.00,ESE,110,6.0,11.0,78,0.00,,,0.00,,2014-01-15 19:32:00,
2014-01-15 10:42:00,0.0,-5.0,-100.00,ESE,110,6.0,11.0,78,0.00,,,0.00,,2014-01-15 19:42:00,
2014-01-15 10:52:00,1.0,-5.0,-100.00,ESE,105,6.0,9.0,78,0.00,,,0.00,,2014-01-15 19:52:00,
2014-01-15 11:01:00,1.0,-5.0,-100.00,ESE,105,6.0,9.0,78,0.00,,,0.00,,2014-01-15 20:01:00,
2014-01-15 11:11:00,1.0,-5.0,-100.00,ESE,105,6.0,9.0,78,0.00,,,0.00,,2014-01-15 20:11:00,
2014-01-15 11:22:00,2.0,-4.0,-100.00,SE,125,5.0,11.0,78,0.00,,,0.00,,2014-01-15 20:22:00,
2014-01-15 11:32:00,2.0,-4.0,-100.00,SE,125,5.0,11.0,78,0.00,,,0.00,,2014-01-15 20:32:00,
2014-01-15 11:42:00,2.0,-4.0,-100.00,SE,125,5.0,11.0,78,0.00,,,0.00,,2014-01-15 20:42:00,
2014-01-15 11:52:00,2.0,-3.0,-100.00,ESE,120,6.0,11.0,78,0.00,,,0.00,,2014-01-15 20:52:00,
2014-01-15 12:01:00,2.0,-3.0,-100.00,ESE,120,6.0,11.0,78,0.00,,,0.00,,2014-01-15 21:01:00,
2014-01-15 12:21:00,3.0,-2.0,-100.00,SE,125,6.0,12.0,79,0.00,,,0.00,,2014-01-15 21:21:00,
2014-01-15 12:33:00,3.0,-2.0,-100.00,SE,125,6.0,12.0,79,0.00,,,0.00,,2014-01-15 21:33:00,
2014-01-15 12:43:00,3.0,-2.0,-100.00,SE,125,6.0,12.0,79,0.00,,,0.00,,2014-01-15 21:43:00,
2014-01-15 12:53:00,2.0,-3.0,-100.00,SE,130,6.0,11.0,79,0.00,,,0.00,,2014-01-15 21:53:00,
2014-01-15 13:03:00,2.0,-3.0,-100.00,SE,130,6.0,11.0,79,0.00,,,0.00,,2014-01-15 22:03:00,
2014-01-15 13:12:00,2.0,-3.0,-100.00,SE,130,6.0,11.0,79,0.00,,,0.00,,2014-01-15 22:12:00,
2014-01-15 13:22:00,3.0,-2.0,-100.00,ESE,110,5.0,11.0,79,0.00,,,0.00,,2014-01-15 22:22:00,
2014-01-15 13:33:00,3.0,-2.0,-100.00,ESE,110,5.0,11.0,79,0.00,,,0.00,,2014-01-15 22:33:00,
2014-01-15 13:42:00,3.0,-2.0,-100.00,ESE,110,5.0,11.0,79,0.00,,,0.00,,2014-01-15 22:42:00,
2014-01-15 14:12:00,4.0,-1.0,-100.00,ESE,110,4.0,9.0,79,0.00,,,0.00,,2014-01-15 23:12:00,
2014-01-15 14:52:00,5.0,1.0,-100.00,East,100,4.0,10.0,80,0.00,,,0.00,,2014-01-15 23:52:00,
2014-01-15 15:02:00,5.0,1.0,-100.00,East,100,4.0,10.0,80,0.00,,,0.00,,2014-01-16 00:02:00,
2014-01-15 15:11:00,5.0,1.0,-100.00,East,100,4.0,10.0,80,0.00,,,0.00,,2014-01-16 00:11:00,
2014-01-15 15:21:00,6.0,1.0,-100.00,ESE,105,4.0,9.0,80,0.00,,,0.00,,2014-01-16 00:21:00,
2014-01-15 15:32:00,6.0,1.0,-100.00,ESE,105,4.0,9.0,80,0.00,,,0.00,,2014-01-16 00:32:00,
2014-01-15 15:42:00,6.0,1.0,-100.00,ESE,105,4.0,9.0,80,0.00,,,0.00,,2014-01-16 00:42:00,
2014-01-15 17:11:00,8.0,4.0,-100.00,ENE,60,4.0,9.0,81,0.00,,,0.00,,2014-01-16 02:11:00,
2014-01-15 18:11:00,10.0,6.0,-100.00,East,100,4.0,10.0,81,0.00,,,0.00,,2014-01-16 03:11:00,
2014-01-15 21:43:00,13.0,7.0,-100.00,ENE,60,9.0,12.0,75,0.00,,,0.00,,2014-01-16 06:43:00,
2014-01-15 23:11:00,14.0,7.0,-100.00,ENE,70,5.0,12.0,73,0.00,,,0.00,,2014-01-16 08:11:00,
2014-01-15 23:22:00,13.0,7.0,-100.00,ENE,75,6.0,13.0,75,0.00,,,0.00,,2014-01-16 08:22:00,
2014-01-15 23:32:00,13.0,7.0,-100.00,ENE,75,6.0,13.0,75,0.00,,,0.00,,2014-01-16 08:32:00,
2014-01-15 23:42:00,13.0,7.0,-100.00,ENE,75,6.0,13.0,75,0.00,,,0.00,,2014-01-16 08:42:00,